sat.trackr.live / text

‹ back to catalog

STARLINK-31318

NORAD 58885 · 2024-020K

PAYLOAD ACTIVE UNKNOWN

§ Identity

Operator
Country
US
Launch date
2024-01-29
Launch site
AFWTR
Launch vehicle
Mass (kg)
RCS (m²)

Purposes: comms

External: N2YO · Heavens-Above · Gunter

§ Orbital elements

Epoch: 2026-09-20T00:47:02.178240Z

Period
94.01 min
Inclination
53.1576°
Eccentricity
0.0001214
Mean motion
15.31701764 rev/d
Perigee alt
469.9 km
Apogee alt
471.6 km
Semi-major
6,848.9 km
B*
4.2796e-5
RAAN
138.4503°
Arg perigee
88.0400°
Mean anomaly
272.0740°
Rev number
14,784

§ Raw data

STARLINK-313181 58885U 24020K   26263.03266410  .00000963  00000+0  42796-4 0  99922 58885  53.1576 138.4503 0001214  88.0400 272.0740 15.31701764147846

JSON: /api/v1/satellites/58885 · /tle

For live sub-satellite position, see the globe view (requires WebGL).

§ Visibility from observer

Set your observer location to see the next 7 days of passes ≥ 10°. The values pass through the URL so the page stays shareable.

No JS? Fill the form by hand. The geolocation button needs JavaScript.